Location: *
(46.1866°S, 178.5290°W)
Time: 10:14:04
(UTC+00:00)

Cosmos 1777 Rocket - Pass Details

Date: 19 May 2021
Orbit: 758 x 776 km, 74.0° (Epoch: 14 June)

Event Time Altitude Azimuth Distance (km) Brightness Sun altitude
Rises 05:19:58 0° 202° (SSW) 3,284 7.3 -9.1°
Reaches altitude 10° 05:22:22 10° 202° (SSW) 2,347 6.6 -9.5°
Maximum altitude 05:27:43 89° 285° (WNW) 783 4.1 -10.4°
Drops below altitude 10° 05:32:59 10° 19° (NNE) 2,305 6.5 -11.2°
Sets 05:35:20 0° 19° (NNE) 3,221 7.2 -11.6°
